• In Latvia
  • List of Countries
  • For 7 days
  • Water Temperature
  • Satellite Maps
  • Weather Map
  • Weather Widgets
  • user-avatar
    Login

    Hourly Weather Oran

    Today, 23 July, Sunday

    Time Temperature Precipitation Wind Pressure Humidity
    00:00 +30°C° 0 mm 2 mps 751 mmHg 44%
    01:00 +29°C° 0 mm 2 mps 751 mmHg 46%
    02:00 +29°C° 0 mm 1 mps 751 mmHg 48%
    03:00 +28°C° 0 mm 1 mps 751 mmHg 50%
    04:00 +28°C° 0 mm 1 mps 751 mmHg 50%
    05:00 +28°C° 0 mm 1 mps 751 mmHg 50%
    06:00 +28°C° 0 mm 1 mps 752 mmHg 51%
    07:00 +29°C° 0 mm 1 mps 752 mmHg 46%
    08:00 +31°C° 0 mm 1 mps 752 mmHg 41%
    09:00 +32°C° 0 mm 1 mps 752 mmHg 36%
    10:00 +34°C° 0 mm 2 mps 752 mmHg 34%
    11:00 +35°C° 0 mm 3 mps 752 mmHg 32%
    12:00 +36°C° 0 mm 4 mps 753 mmHg 30%
    13:00 +36°C° 0 mm 3 mps 752 mmHg 30%
    14:00 +36°C° 0 mm 3 mps 752 mmHg 31%
    15:00 +36°C° 0 mm 2 mps 752 mmHg 32%
    16:00 +35°C° 0 mm 2 mps 752 mmHg 32%
    17:00 +35°C° 0 mm 2 mps 752 mmHg 33%
    18:00 +34°C° 0 mm 2 mps 752 mmHg 34%
    19:00 +33°C° 0 mm 1 mps 752 mmHg 35%
    20:00 +32°C° 0 mm 1 mps 752 mmHg 37%
    21:00 +32°C° 0 mm 1 mps 752 mmHg 38%
    22:00 +32°C° 0 mm 1 mps 752 mmHg 40%
    23:00 +31°C° 0 mm 1 mps 753 mmHg 41%

    Tomorrow, 24 July, Monday

    Time Temperature Precipitation Wind Pressure Humidity
    00:00 +31°C° 0 mm 1 mps 753 mmHg 42%
    01:00 +31°C° 0 mm 1 mps 752 mmHg 43%
    02:00 +30°C° 0 mm 1 mps 752 mmHg 43%
    03:00 +30°C° 0 mm 1 mps 752 mmHg 44%
    04:00 +30°C° 0 mm 1 mps 752 mmHg 45%
    05:00 +30°C° 0 mm 1 mps 752 mmHg 46%
    06:00 +30°C° 0 mm 1 mps 752 mmHg 46%
    07:00 +31°C° 0 mm 1 mps 752 mmHg 41%
    08:00 +32°C° 0 mm 1 mps 752 mmHg 36%
    09:00 +33°C° 0 mm 1 mps 752 mmHg 31%
    10:00 +36°C° 0 mm 2 mps 752 mmHg 27%
    11:00 +37°C° 0 mm 2 mps 752 mmHg 23%
    12:00 +39°C° 0 mm 3 mps 752 mmHg 19%
    13:00 +38°C° 0 mm 3 mps 752 mmHg 19%
    14:00 +38°C° 0 mm 3 mps 751 mmHg 19%
    15:00 +38°C° 0 mm 3 mps 751 mmHg 19%
    16:00 +37°C° 0 mm 3 mps 751 mmHg 20%
    17:00 +37°C° 0 mm 3 mps 751 mmHg 22%
    18:00 +36°C° 0 mm 3 mps 751 mmHg 23%
    19:00 +35°C° 0 mm 2 mps 751 mmHg 26%
    20:00 +34°C° 0 mm 2 mps 752 mmHg 29%
    21:00 +32°C° 0 mm 2 mps 752 mmHg 32%
    22:00 +32°C° 0 mm 2 mps 752 mmHg 34%
    23:00 +31°C° 0 mm 2 mps 752 mmHg 36%

    Day after tomorrow, 25 July, Tuesday

    Time Temperature Precipitation Wind Pressure Humidity
    00:00 +30°C° 0 mm 1 mps 751 mmHg 38%
    01:00 +30°C° 0 mm 2 mps 751 mmHg 41%
    02:00 +29°C° 0 mm 2 mps 751 mmHg 44%
    03:00 +29°C° 0 mm 3 mps 750 mmHg 47%
    04:00 +28°C° 0 mm 2 mps 750 mmHg 47%
    05:00 +28°C° 0 mm 2 mps 750 mmHg 48%
    06:00 +28°C° 0 mm 2 mps 750 mmHg 49%
    07:00 +30°C° 0 mm 2 mps 750 mmHg 42%
    08:00 +32°C° 0 mm 2 mps 750 mmHg 35%
    09:00 +34°C° 0 mm 2 mps 750 mmHg 28%
    10:00 +35°C° 0 mm 3 mps 750 mmHg 27%
    11:00 +36°C° 0 mm 3 mps 750 mmHg 25%
    12:00 +37°C° 0 mm 4 mps 750 mmHg 24%
    13:00 +37°C° 0 mm 4 mps 749 mmHg 24%
    14:00 +37°C° 0 mm 4 mps 749 mmHg 25%
    15:00 +38°C° 0 mm 4 mps 749 mmHg 26%
    16:00 +37°C° 0 mm 4 mps 749 mmHg 28%
    17:00 +36°C° 0 mm 4 mps 749 mmHg 30%
    18:00 +35°C° 0 mm 4 mps 749 mmHg 33%
    19:00 +34°C° 0 mm 4 mps 749 mmHg 37%
    20:00 +33°C° 0 mm 3 mps 749 mmHg 41%
    21:00 +31°C° 0 mm 3 mps 750 mmHg 46%
    22:00 +30°C° 0 mm 2 mps 750 mmHg 48%
    23:00 +30°C° 0 mm 2 mps 750 mmHg 50%

    26 July, Wednesday

    Time Temperature Precipitation Wind Pressure Humidity
    00:00 +29°C° 0 mm 1 mps 750 mmHg 53%
    01:00 +29°C° 0 mm 1 mps 749 mmHg 55%
    02:00 +28°C° 0 mm 2 mps 749 mmHg 58%
    03:00 +27°C° 0 mm 2 mps 749 mmHg 60%
    04:00 +27°C° 0 mm 2 mps 749 mmHg 61%
    05:00 +27°C° 0 mm 1 mps 749 mmHg 62%
    06:00 +27°C° 0 mm 1 mps 749 mmHg 63%
    07:00 +29°C° 0 mm 1 mps 750 mmHg 54%
    08:00 +30°C° 0 mm 1 mps 750 mmHg 45%
    09:00 +32°C° 0 mm 1 mps 750 mmHg 36%
    10:00 +34°C° 0 mm 2 mps 750 mmHg 34%
    11:00 +35°C° 0 mm 3 mps 750 mmHg 33%
    12:00 +36°C° 0 mm 4 mps 750 mmHg 31%
    13:00 +36°C° 0 mm 4 mps 750 mmHg 30%
    14:00 +37°C° 0 mm 4 mps 749 mmHg 29%
    15:00 +37°C° 0 mm 4 mps 749 mmHg 28%
    16:00 +36°C° 0 mm 3 mps 749 mmHg 29%
    17:00 +36°C° 0 mm 3 mps 749 mmHg 30%
    18:00 +35°C° 0 mm 3 mps 749 mmHg 31%
    19:00 +34°C° 0 mm 3 mps 749 mmHg 34%
    20:00 +34°C° 0 mm 3 mps 749 mmHg 37%
    21:00 +32°C° 0 mm 2 mps 750 mmHg 40%
    22:00 +31°C° 0 mm 2 mps 750 mmHg 42%
    23:00 +31°C° 0 mm 2 mps 750 mmHg 44%

    27 July, Thursday

    Time Temperature Precipitation Wind Pressure Humidity
    00:00 +30°C° 0 mm 1 mps 750 mmHg 46%
    01:00 +30°C° 0 mm 1 mps 750 mmHg 47%
    02:00 +29°C° 0 mm 1 mps 749 mmHg 48%
    03:00 +29°C° 0 mm 1 mps 749 mmHg 50%
    04:00 +29°C° 0 mm 1 mps 750 mmHg 49%
    05:00 +29°C° 0 mm 1 mps 750 mmHg 49%
    06:00 +29°C° 0 mm 1 mps 750 mmHg 48%
    07:00 +30°C° 0 mm 1 mps 750 mmHg 43%
    08:00 +32°C° 0 mm 1 mps 750 mmHg 38%
    09:00 +34°C° 0 mm 1 mps 750 mmHg 33%
    10:00 +36°C° 0 mm 2 mps 750 mmHg 30%
    11:00 +37°C° 0 mm 2 mps 750 mmHg 27%
    12:00 +39°C° 0 mm 3 mps 750 mmHg 24%
    13:00 +39°C° 0 mm 3 mps 750 mmHg 23%
    14:00 +40°C° 0 mm 4 mps 750 mmHg 23%
    15:00 +41°C° 0 mm 4 mps 749 mmHg 22%
    16:00 +40°C° 0 mm 4 mps 749 mmHg 23%
    17:00 +40°C° 0 mm 4 mps 749 mmHg 24%
    18:00 +38°C° 0 mm 4 mps 749 mmHg 25%
    19:00 +37°C° 0 mm 3 mps 750 mmHg 27%
    20:00 +36°C° 0 mm 2 mps 750 mmHg 29%
    21:00 +35°C° 0 mm 2 mps 751 mmHg 31%
    22:00 +34°C° 0 mm 2 mps 751 mmHg 32%
    23:00 +32°C° 0 mm 1 mps 751 mmHg 34%

    28 July, Friday

    Time Temperature Precipitation Wind Pressure Humidity
    00:00 +32°C° 0 mm 1 mps 751 mmHg 36%
    01:00 +31°C° 0 mm 1 mps 750 mmHg 38%
    02:00 +30°C° 0 mm 1 mps 750 mmHg 40%
    03:00 +29°C° 0 mm 1 mps 750 mmHg 42%
    04:00 +29°C° 0 mm 1 mps 750 mmHg 42%
    05:00 +30°C° 0 mm 1 mps 751 mmHg 43%
    06:00 +30°C° 0 mm 1 mps 751 mmHg 43%
    07:00 +31°C° 0 mm 1 mps 751 mmHg 38%
    08:00 +33°C° 0 mm 1 mps 751 mmHg 33%
    09:00 +35°C° 0 mm 1 mps 752 mmHg 28%
    10:00 +37°C° 0 mm 2 mps 751 mmHg 26%
    11:00 +39°C° 0 mm 3 mps 751 mmHg 23%
    12:00 +42°C° 0 mm 3 mps 751 mmHg 20%
    13:00 +42°C° 0 mm 4 mps 751 mmHg 20%
    14:00 +42°C° 0 mm 4 mps 751 mmHg 20%
    15:00 +43°C° 0 mm 5 mps 750 mmHg 19%
    16:00 +42°C° 0 mm 5 mps 750 mmHg 21%
    17:00 +41°C° 0 mm 5 mps 750 mmHg 22%
    18:00 +40°C° 0 mm 5 mps 750 mmHg 23%
    19:00 +38°C° 0 mm 4 mps 751 mmHg 26%
    20:00 +37°C° 0 mm 4 mps 751 mmHg 28%
    21:00 +36°C° 0 mm 3 mps 751 mmHg 30%
    22:00 +36°C° 0 mm 3 mps 751 mmHg 31%
    23:00 +35°C° 0 mm 3 mps 751 mmHg 32%
    Show more